NANOSAT 1B

Satellite information

Favourite Embed

Satellite Type and Status

PAYLOADIN ORBIT

Key statistics

Satellite NANOSAT 1B at a glance.

Uptime

5762

Days in orbit

Revolutions

≈ 14.9

Per day

Orbit

SSO

Sun Synchronous Orbit

Inclination

98.1

Latest

Satellite identification and parameters

Extended collection of information and parameters for NANOSAT 1B.

Object identification

Identified? True

Debris? False

Object name: NANOSAT 1B

International designator: 2009-041E

Object number (NORAD): 35685

Object ID (CCSDS): 35685

Country: SPAIN (SPN)

Current information (Y/N): Y

RCS size: MEDIUM

Orbital parameters

Period: 96.57 minutes

Inclination: 98.09 deg

SMA: 6972.507 km

Apoapsis: 630.973 km

Periapsis: 557.771 km

RAAN: 230.148 deg

Eccentricy: 0.0052494

Argument of periapsis: 58.8586 deg

Mean anomaly: 301.7764 deg

Mean motion: 14.91143095 rev/day

Mean motion (dot): 0.00002344 rev/day2

B* drag term: 0.00023633 1/REarth

Two-line elements (TLE)

Creation date: May 7, 2025, 10:26 p.m.

Reference frame: TEME

Reference center: EARTH

Epoch: May 7, 2025, 8:11 p.m. UTC

TLE line 0: 0 NANOSAT 1B

TLE line 1: 1 35685U 09041E 25127.84134118 .00002344 00000-0 23633-3 0 9991

TLE line 2: 2 35685 98.0900 230.1480 0052494 58.8586 301.7764 14.91143095854032

Live tracking on map

Real-time ground track for satellite NANOSAT 1B.

In-orbit conjunctions

There are no conjunctions computed for NANOSAT 1B, at the moment. Check back to stay up to date, as we update our databases every day.

Go to all conjunctions

Associated space launch

Emirati Earth observation satellite. Launched with 5 secondary payloads.

NANOSAT 1B was lifted into orbit during the mission ‘Dnepr | DubaiSat 1’, on board a Dnepr space rocket.

The launch took place on July 29, 2009, 6:46 p.m. from 109/95.

For more information about the launch, click the button.

Launch to space Dnepr | DubaiSat 1
Dnepr | DubaiSat 1

Agency: N/A

Status: Launch Successful

Launch date: July 29, 2009, 6:46 p.m. UTC

Rocket: Dnepr

Launch pad: 109/95

Location: Baikonur Cosmodrome, Republic of Kazakhstan

...

Latest news about this satellite

There are no fresh news available about this satellite. Check back as we update our databases every day.


Newsletter sign-up

Weekly statistics, charts and insights to help you stay on top of the space industry.